#timestamp,LO_Frequency,Hit,StdDev 
1672621215.8,286047002.1,N
1672621235.6,286047002.1,N
1672621255.5,286047001.6,N
1672621275.3,286047002.4,N
1672621295.1,286047000.2,N
1672621315.9,286047001.2,N
1672621335.7,286047002.0,N
1672621355.5,286047002.6,N
1672621375.4,286047002.4,N
1672621395.2,286047002.8,N
1672621415.0,286047001.8,N
1672621415.9,286047001.8,N
1672621435.8,286047002.7,N
1672621455.6,286046999.8,N
1672621475.4,286047001.1,N
1672621495.3,286047000.3,N
1672621515.1,286046999.8,N
1672621516.0,286046999.8,N
1672621535.8,286047000.5,N
1672621555.7,286047001.1,N
1672621575.5,286047000.8,N
1672621595.3,286046998.3,N
1672621615.2,286047000.8,N
1672621635.9,286047001.1,N
1672621655.7,286046999.9,N
1672621675.6,286047000.6,N
1672621695.4,286047002.5,N
1672621715.2,286047000.5,N
1672621735.1,286046999.8,N
1672621736.0,286046999.8,N
1672621755.8,286047002.7,N
1672621775.6,286046999.7,N
1672621795.5,286047002.6,N
1672621815.3,286047002.2,N
1672621835.1,286047002.5,N
1672621855.9,286047002.5,N
1672621875.7,286047000.0,N
1672621895.5,286046999.7,N
1672621915.4,286047002.7,N
1672621935.2,286047002.4,N
1672621955.0,286047000.2,N
1672621955.9,286047000.2,N
1672621975.8,286047000.3,N
1672621995.6,286047002.3,N
1672622015.4,286047004.3,Y
1672622035.3,286047001.9,P
1672622055.1,286047002.1,P
1672622056.0,286047002.1,P
1672622075.8,286047002.6,Y
1672622095.7,286047002.4,P
1672622115.5,286047002.1,P
1672622135.3,286047000.2,N
1672622155.2,286047000.7,N
1672622175.9,286047000.3,N
1672622195.7,286047000.6,N
1672622215.6,286047001.0,N
1672622235.4,286047000.1,N
1672622255.2,286046998.3,N
1672622275.1,286046999.9,N
1672622276.0,286046999.9,N
1672622295.8,286047002.3,N
1672622315.6,286047002.2,N
1672622335.5,286047000.2,N
1672622355.3,286047000.3,N
1672622375.1,286047000.1,N
1672622395.9,286046998.2,N
1672622415.7,286046998.2,N
1672622435.5,286047000.8,N
1672622455.4,286047001.1,N
1672622475.2,286047000.7,N
1672622495.0,286047000.3,N
1672622495.9,286047000.3,N
1672622515.8,286047000.4,N
1672622535.6,286047000.3,N
1672622555.4,286047002.8,N
1672622575.3,286046999.8,N
1672622595.1,286047000.3,N
1672622596.0,286047000.3,N
1672622615.8,286046998.5,N
1672622635.7,286047000.6,N
1672622655.5,286047001.1,N
1672622675.3,286046998.3,N
1672622695.2,286046999.4,N
1672622715.9,286046998.4,N
1672622735.7,286046998.1,N
1672622755.6,286046998.8,N
1672622775.4,286047001.1,N
1672622795.2,286047000.9,N
1672622815.1,286047001.2,N
1672622816.0,286047001.2,N
1672622835.8,286046998.9,N
1672622855.6,286046998.9,N
1672622875.5,286046999.2,N
1672622895.3,286046999.4,N
1672622915.1,286046996.5,Y
1672622935.9,286046996.5,P
1672622955.7,286046999.1,N
1672622975.5,286046996.5,N
1672622995.4,286046998.2,N
1672623015.2,286046999.6,N
1672623035.0,286046996.9,N
1672623035.9,286046996.9,N
1672623055.8,286046999.5,N
1672623075.6,286046998.8,N
1672623095.4,286046996.5,N
1672623115.3,286046998.3,N
1672623135.1,286046998.1,N
1672623155.8,286047000.7,N
1672623175.7,286046998.2,N
1672623195.5,286046998.5,N
1672623215.3,286046998.6,N
1672623235.2,286046999.3,N
1672623255.9,286047001.1,N
1672623275.7,286047000.8,N
1672623295.6,286047000.8,N
1672623315.4,286047000.6,N
1672623335.2,286047002.7,N
1672623355.1,286047002.0,N
1672623356.0,286047002.0,N
1672623375.8,286046998.5,N
1672623395.6,286046998.9,N
1672623415.5,286046998.4,N
1672623435.3,286046998.7,N
1672623455.1,286046996.9,N
1672623475.9,286046999.6,N
1672623495.7,286046996.7,N
1672623515.5,286046996.7,N
1672623535.4,286046996.8,N
1672623555.2,286046997.7,N
1672623575.0,286046996.7,N
1672623575.9,286046996.7,N
1672623595.8,286046999.5,N
1672623615.6,286046997.0,N
1672623635.4,286046999.2,N
1672623655.3,286046999.4,N
1672623675.1,286046998.3,N
1672623695.8,286046998.8,N
1672623715.7,286046998.5,N
1672623735.5,286047000.5,N
1672623755.3,286047001.0,N
1672623775.2,286047000.0,N
1672623795.0,286046999.8,N
1672623795.9,286046999.8,N
1672623815.7,286047002.4,N
1672623835.6,286047001.0,N
1672623855.4,286047000.0,N
1672623875.2,286047000.0,N
1672623895.1,286046999.8,N
1672623896.0,286046999.8,N
1672623915.8,286047002.8,N
1672623935.6,286047004.4,N
1672623955.5,286047004.0,N
1672623975.3,286047001.9,N
1672623995.1,286047004.4,N
1672624015.9,286047003.7,N
1672624035.7,286047003.6,N
1672624055.5,286047002.9,N
1672624075.4,286047004.4,N
1672624095.2,286047001.3,N
1672624115.0,286047005.6,N
1672624115.9,286047005.6,N
1672624135.8,286047002.9,N
1672624155.6,286047003.9,N
1672624175.4,286047001.5,N
1672624195.3,286047002.2,N
1672624215.1,286047001.8,N
1672624235.8,286047004.3,N
1672624255.7,286047004.0,N
1672624275.5,286047003.7,N
1672624295.3,286047005.3,N
1672624315.2,286047005.2,N
1672624335.0,286047006.0,Y
1672624335.9,286047006.0,P
1672624355.7,286046999.9,N
1672624375.6,286047001.2,N
1672624395.4,286047000.7,N
1672624415.2,286047002.8,N
1672624435.1,286047000.5,N
1672624436.0,286047000.5,N
1672624455.8,286047000.5,N
1672624475.6,286047000.8,N
1672624495.5,286047002.6,N
1672624515.3,286047000.2,N
1672624535.1,286047002.7,N
1672624555.9,286047001.9,N
1672624575.7,286047000.1,N
1672624595.5,286047000.3,N
1672624615.4,286046999.9,N
1672624635.2,286047000.4,N
1672624655.0,286047000.3,N
1672624655.9,286047000.3,N
1672624675.8,286047002.3,N
1672624695.6,286047002.2,N
1672624715.4,286047000.2,N
1672624735.3,286047002.7,N
1672624755.1,286047002.0,N
1672624775.8,286047002.2,N
1672624795.7,286047001.7,N
